THY4VS LTFM-LTAT

Flight info

Callsign THY4VS
Flight time 1h 14m
Altitude 39000
Route VICEN1E/36 VICEN UT380 ASMAP UL333 BAG UL614 GOBIT UG8 GEM UT32 UREBO
Aircraft A20N/M-SDE2E3FGHIRWXY/LB1

Departure

Time 2026-05-05 18:50
Airport İstanbul Airport (LTFM)

Arrival

Time 2026-05-05 20:04
Airport Malatya Erhaç Airport (LTAT)
Time Latitude Longitude Altitude Speed Heading
2026-05-05 18:33 41.26491 28.74974 313 ft 0 kts 287°
2026-05-05 18:41 41.26490 28.74978 313 ft 1 kts 284°
2026-05-05 18:41 41.26488 28.74988 313 ft 1 kts 278°
2026-05-05 18:41 41.26487 28.74998 312 ft 1 kts 273°
2026-05-05 18:42 41.26486 28.75008 312 ft 1 kts 267°
2026-05-05 18:42 41.26487 28.75019 312 ft 1 kts 262°
2026-05-05 18:42 41.26488 28.75029 311 ft 1 kts 256°
2026-05-05 18:42 41.26490 28.75039 312 ft 1 kts 251°
2026-05-05 18:43 41.26492 28.75048 311 ft 1 kts 245°
2026-05-05 18:43 41.26496 28.75057 311 ft 1 kts 240°
2026-05-05 18:43 41.26499 28.75066 311 ft 1 kts 234°
2026-05-05 18:43 41.26504 28.75074 311 ft 1 kts 229°
2026-05-05 18:44 41.26509 28.75082 311 ft 1 kts 224°
2026-05-05 18:44 41.26515 28.75089 311 ft 1 kts 218°
2026-05-05 18:44 41.26521 28.75095 312 ft 1 kts 210°
2026-05-05 18:44 41.26527 28.75100 311 ft 1 kts 196°
2026-05-05 18:45 41.26529 28.75101 311 ft 0 kts 192°
2026-05-05 18:46 41.26513 28.75095 311 ft 4 kts 196°
2026-05-05 18:47 41.26474 28.75079 313 ft 8 kts 197°
2026-05-05 18:47 41.26412 28.75054 313 ft 11 kts 197°
2026-05-05 18:47 41.26329 28.75020 313 ft 14 kts 197°
2026-05-05 18:47 41.26238 28.75041 313 ft 15 kts 118°
2026-05-05 18:48 41.26240 28.75178 313 ft 16 kts 89°
2026-05-05 18:48 41.26243 28.75334 314 ft 18 kts 89°
2026-05-05 18:48 41.26245 28.75510 314 ft 20 kts 89°
2026-05-05 18:48 41.26261 28.75673 314 ft 9 kts 38°
2026-05-05 18:49 41.26306 28.75671 315 ft 10 kts 355°
2026-05-05 18:49 41.26618 28.75662 309 ft 80 kts 359°
2026-05-05 18:49 41.27382 28.75650 297 ft 136 kts 360°
2026-05-05 18:49 41.28465 28.75628 375 ft 169 kts 358°
2026-05-05 18:50 41.29637 28.75568 995 ft 170 kts 358°
2026-05-05 18:50 41.30832 28.75554 1658 ft 173 kts
2026-05-05 18:50 41.31976 28.76073 2414 ft 177 kts 32°
2026-05-05 18:50 41.32917 28.77248 2834 ft 195 kts 45°
2026-05-05 18:51 41.33916 28.78631 3207 ft 218 kts 40°
2026-05-05 18:51 41.35137 28.79965 3818 ft 235 kts 33°
2026-05-05 18:51 41.36513 28.81176 4798 ft 237 kts 30°
2026-05-05 18:51 41.37729 28.82637 5784 ft 245 kts 52°
2026-05-05 18:52 41.38367 28.84779 6706 ft 258 kts 79°
2026-05-05 18:52 41.38430 28.87227 7480 ft 272 kts 85°
2026-05-05 18:52 41.38390 28.89794 8309 ft 281 kts 95°
2026-05-05 18:52 41.37688 28.92267 9235 ft 295 kts 121°
2026-05-05 18:53 41.36196 28.94204 10114 ft 307 kts 147°
2026-05-05 18:53 41.34176 28.95251 10623 ft 329 kts 169°
2026-05-05 18:53 41.31801 28.95429 10929 ft 353 kts 182°
2026-05-05 18:53 41.29286 28.95235 11512 ft 365 kts 184°
2026-05-05 18:54 41.26738 28.95043 12360 ft 369 kts 182°
2026-05-05 18:54 41.24155 28.94825 13196 ft 373 kts 186°
2026-05-05 18:54 41.21581 28.94513 14000 ft 378 kts 185°
2026-05-05 18:54 41.18941 28.94241 14755 ft 381 kts 184°
2026-05-05 18:55 41.16290 28.93993 15530 ft 384 kts 184°
2026-05-05 18:55 41.13617 28.93750 16290 ft 386 kts 184°
2026-05-05 18:55 41.10925 28.93505 17041 ft 390 kts 184°
2026-05-05 18:55 41.08206 28.93258 17785 ft 393 kts 184°
2026-05-05 18:56 41.06362 28.93089 18290 ft 395 kts 184°
2026-05-05 18:56 41.03633 28.93181 18916 ft 397 kts 169°
2026-05-05 18:56 41.01010 28.94307 19551 ft 398 kts 152°
2026-05-05 18:56 40.99282 28.95774 20021 ft 397 kts 139°
2026-05-05 18:57 40.97156 28.98415 20665 ft 399 kts 132°
2026-05-05 18:57 40.95238 29.01099 21279 ft 402 kts 131°
2026-05-05 18:57 40.93303 29.03804 21903 ft 405 kts 132°
2026-05-05 18:57 40.91322 29.06496 22490 ft 409 kts 133°
2026-05-05 18:58 40.89306 29.09169 23080 ft 412 kts 133°
2026-05-05 18:58 40.87284 29.11809 23645 ft 415 kts 133°
2026-05-05 18:58 40.85429 29.14740 24143 ft 416 kts 122°
2026-05-05 18:58 40.84039 29.18091 24617 ft 416 kts 111°
2026-05-05 18:59 40.83152 29.21728 25095 ft 417 kts 102°
2026-05-05 18:59 40.82429 29.25458 25568 ft 420 kts 102°
2026-05-05 18:59 40.81694 29.29213 26027 ft 422 kts 102°
2026-05-05 18:59 40.80951 29.32980 26487 ft 425 kts 102°
2026-05-05 19:00 40.80210 29.36715 26920 ft 428 kts 102°
2026-05-05 19:00 40.79450 29.40536 27355 ft 431 kts 102°
2026-05-05 19:00 40.78683 29.44379 27769 ft 433 kts 102°
2026-05-05 19:00 40.77910 29.48249 28195 ft 436 kts 102°
2026-05-05 19:01 40.77133 29.52128 28564 ft 439 kts 102°
2026-05-05 19:01 40.76349 29.56035 28957 ft 441 kts 102°
2026-05-05 19:01 40.75561 29.59959 29319 ft 444 kts 102°
2026-05-05 19:01 40.74773 29.63870 29665 ft 447 kts 102°
2026-05-05 19:02 40.73993 29.67850 30008 ft 448 kts 100°
2026-05-05 19:02 40.73491 29.71908 30325 ft 449 kts 93°
2026-05-05 19:02 40.73335 29.76024 30609 ft 450 kts 88°
2026-05-05 19:02 40.73276 29.80174 30899 ft 453 kts 89°
2026-05-05 19:03 40.73205 29.84341 31199 ft 455 kts 89°
2026-05-05 19:03 40.73129 29.88458 31543 ft 456 kts 89°
2026-05-05 19:03 40.73049 29.92643 31921 ft 456 kts 89°
2026-05-05 19:03 40.72967 29.96823 32290 ft 456 kts 88°
2026-05-05 19:04 40.72884 30.01014 32648 ft 457 kts 89°
2026-05-05 19:04 40.72611 30.05200 32999 ft 459 kts 95°
2026-05-05 19:04 40.71973 30.09347 33316 ft 463 kts 102°
2026-05-05 19:04 40.70988 30.13405 33647 ft 465 kts 107°
2026-05-05 19:05 40.69912 30.17430 33969 ft 465 kts 106°
2026-05-05 19:05 40.68843 30.21470 34265 ft 466 kts 106°
2026-05-05 19:05 40.67788 30.25461 34538 ft 466 kts 106°
2026-05-05 19:05 40.66839 30.29540 34801 ft 464 kts 100°
2026-05-05 19:06 40.66251 30.33715 35049 ft 462 kts 94°
2026-05-05 19:06 40.65914 30.37920 35292 ft 462 kts 93°
2026-05-05 19:06 40.65575 30.42134 35537 ft 462 kts 93°
2026-05-05 19:06 40.65227 30.46351 35778 ft 463 kts 93°
2026-05-05 19:07 40.64875 30.50580 36016 ft 463 kts 93°
2026-05-05 19:07 40.64525 30.54747 36240 ft 464 kts 93°
2026-05-05 19:07 40.64169 30.58978 36458 ft 464 kts 93°
2026-05-05 19:07 40.63812 30.63204 36676 ft 464 kts 93°
2026-05-05 19:08 40.63453 30.67435 36881 ft 465 kts 94°
2026-05-05 19:08 40.62977 30.71645 37101 ft 466 kts 99°
2026-05-05 19:08 40.62166 30.75795 37324 ft 468 kts 103°
2026-05-05 19:08 40.61296 30.79863 37514 ft 468 kts 103°
2026-05-05 19:09 40.60421 30.83995 37718 ft 468 kts 103°
2026-05-05 19:09 40.59545 30.88140 37914 ft 468 kts 103°
2026-05-05 19:09 40.58670 30.92271 38109 ft 468 kts 103°
2026-05-05 19:09 40.57794 30.96400 38277 ft 468 kts 103°
2026-05-05 19:10 40.56926 31.00481 38456 ft 468 kts 103°
2026-05-05 19:10 40.56047 31.04603 38643 ft 468 kts 103°
2026-05-05 19:10 40.55164 31.08735 38796 ft 468 kts 103°
2026-05-05 19:10 40.54277 31.12877 38942 ft 468 kts 104°
2026-05-05 19:11 40.53395 31.16992 39051 ft 468 kts 104°
2026-05-05 19:11 40.52518 31.21074 39068 ft 468 kts 104°
2026-05-05 19:11 40.50739 31.29314 39064 ft 467 kts 104°
2026-05-05 19:12 40.48958 31.37527 39061 ft 467 kts 104°
2026-05-05 19:12 40.47172 31.45737 39059 ft 467 kts 104°
2026-05-05 19:13 40.45390 31.53901 39054 ft 467 kts 104°
2026-05-05 19:13 40.43594 31.62117 39057 ft 468 kts 104°
2026-05-05 19:14 40.41792 31.70327 39049 ft 467 kts 104°
2026-05-05 19:14 40.39996 31.78476 39044 ft 467 kts 104°
2026-05-05 19:15 40.38185 31.86666 39051 ft 467 kts 104°
2026-05-05 19:15 40.36365 31.94861 39046 ft 467 kts 104°
2026-05-05 19:16 40.34531 32.03056 39047 ft 468 kts 105°
2026-05-05 19:16 40.32455 32.11094 39043 ft 469 kts 112°
2026-05-05 19:17 40.29673 32.18841 39036 ft 469 kts 114°
2026-05-05 19:17 40.26880 32.26565 39029 ft 469 kts 114°
2026-05-05 19:18 40.24099 32.34242 39025 ft 469 kts 114°
2026-05-05 19:18 40.21296 32.41961 39025 ft 469 kts 115°
2026-05-05 19:19 40.18485 32.49677 39023 ft 469 kts 115°
2026-05-05 19:19 40.15685 32.57341 39022 ft 469 kts 115°
2026-05-05 19:20 40.12883 32.64993 39018 ft 468 kts 115°
2026-05-05 19:20 40.10061 32.72679 39017 ft 469 kts 115°
2026-05-05 19:21 40.07242 32.80357 39019 ft 468 kts 114°
2026-05-05 19:21 40.04858 32.88265 39018 ft 468 kts 110°
2026-05-05 19:22 40.02533 32.96217 39021 ft 468 kts 110°
2026-05-05 19:22 40.00199 33.04143 39018 ft 468 kts 110°
2026-05-05 19:23 39.97873 33.12014 39016 ft 468 kts 111°
2026-05-05 19:23 39.95522 33.19943 39011 ft 468 kts 111°
2026-05-05 19:24 39.93169 33.27858 38993 ft 468 kts 111°
2026-05-05 19:24 39.90803 33.35792 38999 ft 469 kts 111°
2026-05-05 19:25 39.88448 33.43668 38994 ft 469 kts 111°
2026-05-05 19:25 39.86068 33.51602 39004 ft 469 kts 111°
2026-05-05 19:26 39.83690 33.59532 39003 ft 469 kts 109°
2026-05-05 19:26 39.81872 33.67688 39000 ft 469 kts 104°
2026-05-05 19:27 39.80228 33.75861 39007 ft 469 kts 104°
2026-05-05 19:27 39.78554 33.84096 39001 ft 469 kts 104°
2026-05-05 19:28 39.76652 33.92151 39007 ft 469 kts 110°
2026-05-05 19:28 39.74384 34.00116 39004 ft 469 kts 110°
2026-05-05 19:29 39.72130 34.08072 39012 ft 469 kts 110°
2026-05-05 19:29 39.69865 34.16040 39016 ft 469 kts 110°
2026-05-05 19:30 39.67612 34.23937 39006 ft 469 kts 110°
2026-05-05 19:30 39.65337 34.31888 39013 ft 469 kts 110°
2026-05-05 19:31 39.63057 34.39832 39010 ft 469 kts 110°
2026-05-05 19:31 39.60789 34.47709 39010 ft 468 kts 110°
2026-05-05 19:32 39.58501 34.55632 39011 ft 468 kts 110°
2026-05-05 19:32 39.56211 34.63538 39016 ft 468 kts 111°
2026-05-05 19:33 39.53917 34.71435 39013 ft 468 kts 111°
2026-05-05 19:33 39.51633 34.79275 39012 ft 467 kts 111°
2026-05-05 19:34 39.49333 34.87146 39011 ft 467 kts 111°
2026-05-05 19:35 39.45868 34.98958 39004 ft 467 kts 111°
2026-05-05 19:35 39.43553 35.06823 39002 ft 467 kts 111°
2026-05-05 19:36 39.41248 35.14628 38999 ft 467 kts 111°
2026-05-05 19:36 39.38933 35.22497 39001 ft 467 kts 111°
2026-05-05 19:37 39.36659 35.30388 39001 ft 468 kts 111°
2026-05-05 19:37 39.34393 35.38220 39004 ft 468 kts 111°
2026-05-05 19:38 39.32098 35.46108 39000 ft 468 kts 111°
2026-05-05 19:38 39.29810 35.53944 39002 ft 469 kts 111°
2026-05-05 19:39 39.27501 35.61832 39013 ft 469 kts 111°
2026-05-05 19:39 39.25186 35.69713 39013 ft 469 kts 111°
2026-05-05 19:40 39.22879 35.77547 39021 ft 469 kts 111°
2026-05-05 19:40 39.20550 35.85430 39007 ft 469 kts 111°
2026-05-05 19:41 39.18218 35.93304 39016 ft 469 kts 111°
2026-05-05 19:41 39.15895 36.01122 39011 ft 470 kts 111°
2026-05-05 19:42 39.13476 36.08950 39012 ft 470 kts 113°
2026-05-05 19:42 39.10946 36.16719 38850 ft 471 kts 114°
2026-05-05 19:42 39.09683 36.20609 38629 ft 470 kts 114°
2026-05-05 19:43 39.08851 36.23176 38444 ft 469 kts 113°
2026-05-05 19:43 39.07592 36.27068 37868 ft 471 kts 113°
2026-05-05 19:43 39.05914 36.32255 36904 ft 474 kts 113°
2026-05-05 19:43 39.05056 36.34902 36439 ft 474 kts 113°
2026-05-05 19:44 39.03801 36.38773 35750 ft 474 kts 113°
2026-05-05 19:44 39.02525 36.42705 35078 ft 474 kts 113°
2026-05-05 19:44 39.01249 36.46628 34373 ft 475 kts 112°
2026-05-05 19:44 38.99970 36.50557 33558 ft 477 kts 112°
2026-05-05 19:45 38.98690 36.54484 32842 ft 475 kts 112°
2026-05-05 19:45 38.97423 36.58365 32006 ft 476 kts 112°
2026-05-05 19:45 38.96142 36.62284 31216 ft 476 kts 112°
2026-05-05 19:45 38.94862 36.66195 30661 ft 470 kts 112°
2026-05-05 19:46 38.93609 36.70018 30031 ft 466 kts 112°
2026-05-05 19:46 38.92356 36.73836 29406 ft 460 kts 112°
2026-05-05 19:46 38.91117 36.77610 28810 ft 454 kts 112°
2026-05-05 19:46 38.89897 36.81322 28219 ft 447 kts 113°
2026-05-05 19:47 38.88690 36.84985 27639 ft 442 kts 113°
2026-05-05 19:47 38.87499 36.88599 27074 ft 436 kts 113°
2026-05-05 19:47 38.86322 36.92163 26497 ft 431 kts 113°
2026-05-05 19:47 38.85172 36.95642 25939 ft 427 kts 114°
2026-05-05 19:48 38.84014 36.99142 25376 ft 422 kts 114°
2026-05-05 19:48 38.82871 37.02592 24815 ft 418 kts 114°
2026-05-05 19:48 38.81737 37.06015 24259 ft 414 kts 114°
2026-05-05 19:48 38.80627 37.09360 23693 ft 410 kts 114°
2026-05-05 19:49 38.79637 37.12772 23113 ft 407 kts 108°
2026-05-05 19:49 38.79014 37.16287 22567 ft 402 kts 100°
2026-05-05 19:49 38.78752 37.19837 22017 ft 398 kts 93°
2026-05-05 19:49 38.78648 37.23361 21469 ft 393 kts 93°
2026-05-05 19:50 38.78536 37.26852 20936 ft 389 kts 93°
2026-05-05 19:50 38.78420 37.30298 20399 ft 385 kts 93°
2026-05-05 19:50 38.78302 37.33713 19869 ft 381 kts 92°
2026-05-05 19:50 38.78186 37.37050 19349 ft 378 kts 92°
2026-05-05 19:51 38.78068 37.40405 18824 ft 375 kts 92°
2026-05-05 19:51 38.77949 37.43744 18298 ft 373 kts 91°
2026-05-05 19:51 38.77831 37.47054 17739 ft 370 kts 91°
2026-05-05 19:51 38.77714 37.50335 17214 ft 365 kts 91°
2026-05-05 19:52 38.77598 37.53577 16699 ft 361 kts 91°
2026-05-05 19:52 38.77482 37.56777 16189 ft 358 kts 91°
2026-05-05 19:52 38.77367 37.59955 15684 ft 355 kts 91°
2026-05-05 19:52 38.77254 37.63057 15191 ft 352 kts 91°
2026-05-05 19:53 38.77139 37.66181 14689 ft 349 kts 91°
2026-05-05 19:53 38.77024 37.69274 14203 ft 347 kts 91°
2026-05-05 19:53 38.76908 37.72356 13691 ft 345 kts 91°
2026-05-05 19:53 38.76792 37.75421 13266 ft 345 kts 91°
2026-05-05 19:54 38.76675 37.78513 13063 ft 348 kts 91°
2026-05-05 19:54 38.76557 37.81618 12611 ft 349 kts 91°
2026-05-05 19:54 38.76437 37.84755 11850 ft 354 kts 91°
2026-05-05 19:54 38.76315 37.87891 10963 ft 358 kts 91°
2026-05-05 19:55 38.76191 37.91082 10082 ft 355 kts 91°
2026-05-05 19:55 38.76068 37.94173 9839 ft 334 kts 91°
2026-05-05 19:55 38.75953 37.97025 9834 ft 306 kts 91°
2026-05-05 19:55 38.75848 37.99613 9836 ft 285 kts 91°
2026-05-05 19:56 38.75746 38.02174 9817 ft 289 kts 91°
2026-05-05 19:56 38.75644 38.04750 9782 ft 289 kts 91°
2026-05-05 19:56 38.75543 38.07315 9451 ft 288 kts 91°
2026-05-05 19:56 38.75440 38.09875 8871 ft 287 kts 91°
2026-05-05 19:57 38.75319 38.12414 8281 ft 284 kts 96°
2026-05-05 19:57 38.74801 38.14843 7733 ft 282 kts 113°
2026-05-05 19:57 38.73822 38.17016 7201 ft 281 kts 121°
2026-05-05 19:57 38.72778 38.19149 6711 ft 288 kts 121°
2026-05-05 19:58 38.71722 38.21330 6307 ft 284 kts 121°
2026-05-05 19:58 38.70702 38.23438 6001 ft 271 kts 121°
2026-05-05 19:58 38.69727 38.25396 5989 ft 251 kts 127°
2026-05-05 19:58 38.68372 38.26648 5996 ft 243 kts 163°
2026-05-05 19:59 38.66696 38.26713 5992 ft 248 kts 193°
2026-05-05 19:59 38.65090 38.25932 5997 ft 246 kts 208°
2026-05-05 19:59 38.63612 38.24847 5994 ft 242 kts 213°
2026-05-05 19:59 38.62217 38.23730 6001 ft 231 kts 212°
2026-05-05 20:00 38.60888 38.22690 5998 ft 215 kts 213°
2026-05-05 20:00 38.59693 38.21752 5992 ft 193 kts 213°
2026-05-05 20:00 38.58608 38.20900 5958 ft 180 kts 213°
2026-05-05 20:00 38.57526 38.20050 5756 ft 182 kts 213°
2026-05-05 20:01 38.56462 38.19216 5493 ft 177 kts 213°
2026-05-05 20:01 38.55407 38.18388 5273 ft 178 kts 213°
2026-05-05 20:01 38.54353 38.17562 5032 ft 177 kts 213°
2026-05-05 20:01 38.53317 38.16750 4814 ft 171 kts 213°
2026-05-05 20:02 38.52338 38.15984 4576 ft 159 kts 213°
2026-05-05 20:02 38.51410 38.15254 4290 ft 158 kts 213°
2026-05-05 20:02 38.50479 38.14536 4072 ft 155 kts 212°
2026-05-05 20:02 38.49558 38.13824 3851 ft 152 kts 213°
2026-05-05 20:03 38.48669 38.13104 3628 ft 149 kts 213°
2026-05-05 20:03 38.47806 38.12413 3453 ft 148 kts 211°
2026-05-05 20:03 38.46918 38.11738 3266 ft 148 kts 211°
2026-05-05 20:03 38.46041 38.11054 3058 ft 147 kts 212°
2026-05-05 20:04 38.45165 38.10368 2874 ft 147 kts 210°
2026-05-05 20:04 38.44301 38.09694 2780 ft 137 kts 211°
2026-05-05 20:04 38.43661 38.09200 2794 ft 80 kts 211°
2026-05-05 20:04 38.43342 38.08955 2801 ft 37 kts 212°
2026-05-05 20:05 38.43137 38.08796 2810 ft 32 kts 211°
2026-05-05 20:05 38.42968 38.08650 2821 ft 22 kts 227°
2026-05-05 20:05 38.42971 38.08538 2822 ft 11 kts 297°
2026-05-05 20:05 38.43005 38.08461 2825 ft 10 kts 303°
2026-05-05 20:06 38.43049 38.08380 2825 ft 13 kts 303°
2026-05-05 20:06 38.43112 38.08287 2823 ft 15 kts 304°
2026-05-05 20:06 38.43119 38.08272 2825 ft 0 kts 299°